Victoria, British Columbia

8:00 PM PDT on August 27, 2016 (GMT -0700)
Victoria International

Weather History for CYYJ - December, 2012

Change the Weather History Date:

Sunday, December 30, 2012

  Actual Average Record
Temperature  
Mean Temperature 37 °F -  
Max Temperature 41 °F 44 °F 51 °F (1997)
Min Temperature 33 °F 33 °F 23 °F (2010)
Degree Days  
Heating Degree Days 28    
Moisture  
Dew Point 36 °F    
Average Humidity 92    
Maximum Humidity 100    
Minimum Humidity 81    
Precipitation  
Precipitation 0.00 in 0.19 in - ()
Sea Level Pressure  
Sea Level Pressure 30.30 in    
Wind  
Wind Speed 4 mph ()    
Max Wind Speed 8 mph    
Max Gust Speed -    
Visibility 19.0 miles    
Events      
Averages and records for this station are not official NWS values.
T = Trace of Precipitation, MM = Missing Value Source: Averaged Metar Reports

Daily Weather History Graph

Daily Weather History Graph

Search for Another Location

Airport or City:

Trip Planner

Search our weather history database for the weather conditions in past years. The results will help you decide how hot, cold, wet, or windy it might be!

Date:

Astronomy

Dec. 30, 2012 Rise Set
Actual Time 8:06 AM PST 4:27 PM PST
Civil Twilight 7:29 AM PST 5:03 PM PST
Nautical Twilight 6:49 AM PST 5:44 PM PST
Astronomical Twilight 6:11 AM PST 6:22 PM PST
Moon 7:17 PM PST (12/30) 9:05 AM PST (12/30)
Length of Visible Light 9h 34m
Length of Day
8h 20m
Waning Gibbous, 95% of the Moon is Illuminated
Dec 30
Waning Gibbous
Jan 4
Last Quarter
Jan 11
New
Jan 18
First Quarter
Jan 26
Full

Hourly Weather History & Observations

Time (PST) Temp. Windchill Dew Point Humidity Pressure Visibility Wind Dir Wind Speed Gust Speed Precip Events Conditions
12:00 AM 41.0 °F 38.0 °F 39.2 °F 93% 30.25 in 20.0 mi WNW 4.6 mph - N/A   Overcast
1:00 AM 39.2 °F 35.0 °F 37.4 °F 93% 30.26 in 20.0 mi NW 5.8 mph - N/A   Mostly Cloudy
2:00 AM 37.4 °F 33.8 °F 35.6 °F 93% 30.26 in 20.0 mi WSW 4.6 mph - N/A   Mostly Cloudy
3:00 AM 42.8 °F 39.3 °F 37.4 °F 81% 30.28 in 20.0 mi WNW 5.8 mph - N/A   Mostly Cloudy
4:00 AM 37 °F - 36 °F 94% 30.30 in 19 mi WNW 6.9 mph - -   Mostly Cloudy
4:00 AM 37.4 °F 31.4 °F 35.6 °F 93% 30.30 in 20.0 mi WNW 8.1 mph - N/A   Mostly Cloudy
4:39 AM 35.6 °F 30.7 °F - N/A% - 20.0 mi WNW 5.8 mph - N/A   Scattered Clouds
5:00 AM 35.6 °F 30.7 °F 35.6 °F 100% 30.30 in 20.0 mi West 5.8 mph - N/A   Partly Cloudy
6:00 AM 35.6 °F 32.8 °F 33.8 °F 93% 30.29 in 20.0 mi West 3.5 mph - N/A   Partly Cloudy
7:00 AM 33.8 °F 28.6 °F 32.0 °F 93% 30.29 in 20.0 mi West 5.8 mph - N/A   Mostly Cloudy
8:00 AM 35.6 °F 30.7 °F 33.8 °F 93% 30.30 in 20.0 mi WNW 5.8 mph - N/A   Mostly Cloudy
9:00 AM 35.6 °F 31.7 °F 35.6 °F 100% 30.32 in 20.0 mi West 4.6 mph - N/A   Mostly Cloudy
10:00 AM 37 °F - 36 °F 92% 30.33 in 19 mi West 4.6 mph - -   Mostly Cloudy
10:00 AM 37.4 °F 33.8 °F 35.6 °F 93% 30.33 in 20.0 mi West 4.6 mph - N/A   Mostly Cloudy
11:00 AM 37.4 °F 33.8 °F 35.6 °F 93% 30.34 in 20.0 mi WNW 4.6 mph - N/A   Mostly Cloudy
12:00 PM 37.4 °F 32.8 °F 35.6 °F 93% 30.33 in 20.0 mi West 5.8 mph - N/A   Mostly Cloudy
1:00 PM 37.4 °F 34.9 °F 35.6 °F 93% 30.31 in 20.0 mi NW 3.5 mph - N/A   Mostly Cloudy
2:00 PM 39.2 °F - 37.4 °F 93% 30.31 in 30.0 mi SW 2.3 mph - N/A   Mostly Cloudy
3:00 PM 39.2 °F - 35.6 °F 87% 30.31 in 30.0 mi Calm Calm - N/A   Mostly Cloudy
4:00 PM 39.2 °F - 35.6 °F 87% 30.30 in 30.0 mi NNE 2.3 mph - N/A   Mostly Cloudy
5:00 PM 39.2 °F - 35.6 °F 87% 30.29 in 30.0 mi Calm Calm - N/A   Mostly Cloudy
6:00 PM 39.2 °F - 35.6 °F 87% 30.30 in 30.0 mi SW 2.3 mph - N/A   Mostly Cloudy
7:00 PM 39.2 °F 37.0 °F 35.6 °F 87% 30.30 in 30.0 mi WSW 3.5 mph - N/A   Mostly Cloudy
8:00 PM 37.4 °F 33.8 °F 35.6 °F 93% 30.29 in 30.0 mi NW 4.6 mph - N/A   Overcast
9:00 PM 37.4 °F - 35.6 °F 93% 30.29 in 30.0 mi Calm Calm - N/A   Overcast
10:00 PM 38 °F - 36 °F 90% 30.30 in 15 mi WSW 2.3 mph - -   Overcast
10:00 PM 37.4 °F - 35.6 °F 93% 30.30 in 15.0 mi Calm Calm - N/A   Overcast
11:00 PM 37.4 °F - 35.6 °F 93% 30.30 in 15.0 mi WSW 2.3 mph - N/A   Overcast
11:45 PM 39.2 °F - - N/A% - 15.0 mi Calm Calm - N/A   Overcast